{"data":{"norad_id":48687,"intl_designator":"2021-044BB","name":"STARLINK-2627","alt_names":[],"object_type":"PAYLOAD","status":"ACTIVE","operator":null,"country":"US","launch_date":"2021-05-26","launch_site_code":"AFETR","launch_vehicle":null,"mission":null,"orbit_class":"UNKNOWN","rcs_meters":null,"size_class":null,"mass_kg":null,"dimensions":null,"purposes":["comms"],"wikipedia_slug":null,"has_3d_model":false,"image_url":null,"decayed_at":null,"tle_current":{"epoch":"2026-09-19T22:21:58.484160Z","epoch_age_seconds":90426,"freshness":"FRESH","line1":"1 48687U 21044BB  26262.93192690 -.00001335  00000+0 -31255-4 0  9994","line2":"2 48687  53.1593 241.0058 0001427 114.8563 245.2587 15.31707505294263","mean_motion":15.31707505,"eccentricity":0.0001427,"inclination_deg":53.1593,"raan_deg":241.0058,"arg_perigee_deg":114.8563,"mean_anomaly_deg":245.2587,"bstar":-3.1255e-5,"rev_number":29426,"period_min":94.01272731898,"perigee_km":469.74029174778,"apogee_km":471.69495485727,"semimajor_km":6848.8546233025,"source":"CELESTRAK","updated_at":"2026-09-20T09:00:39.244497Z"}}}